Regional Weather Roundup
Issued by NWS

Home | Current Version | Previous Version | Text Only | Print | Product List | Glossary On
Versions: 1 2 3 4 5 6 7 8 9 10 11 12 13 14 15 16 17 18 19 20 21 22 23 24 25 26 27 28 29 30 31 32 33 34 35 36 37 38 39 40 41 42 43 44 45 46 47 48 49 50
000
ASUS43 KLSX 011557
RWRMO

WEATHER SUMMARY FOR MISSOURI
NATIONAL WEATHER SERVICE SPRINGFIELD MO
1100 AM CDT TUE SEP 01 2015

NOTE: "FAIR" INDICATES FEW OR NO CLOUDS BELOW 12,000 FEET WITH NO
       SIGNIFICANT WEATHER AND/OR OBSTRUCTIONS TO VISIBILITY.
       CURRENT SKY AND/OR WEATHER CONDITIONS ARE NOT AVAILABLE FOR
       CHILLICOTHE AND FARMINGTON.

MOZ001>031-035>038-043-044-053-054-011700-
...NORTHERN AND WESTERN MISSOURI...

CITY           SKY/WX    TMP DP  RH WIND       PRES   REMARKS
KANSAS CTY INT MOSUNNY   84  68  58 SW15      30.04R
LEE`S SUMMIT   SUNNY     82  68  62 SW13      30.06R
ST JOSEPH      SUNNY     82  69  64 S14       30.01S
CHILLICOTHE      N/A     84  70  62 SW6       30.04S

$$
MOZ066>068-077>081-088>096-101>105-011700-
...SOUTHWEST MISSOURI...

CITY           SKY/WX    TMP DP  RH WIND       PRES   REMARKS
SPRINGFIELD    SUNNY     83  68  60 S8        30.11R
JOPLIN         SUNNY     83  67  58 S12       30.08S

$$
MOZ032>034-039>042-045>050-055>058-069>072-011700-
...CENTRAL MISSOURI...

CITY           SKY/WX    TMP DP  RH WIND       PRES   REMARKS
COLUMBIA       NOT AVBL
JEFFERSON CITY SUNNY     83  68  60 SW6       30.07S
ROLLA          SUNNY     84  69  60 VRB7      30.11R
SEDALIA        SUNNY     86  69  56 SW9       30.08S HX  90

$$
MOZ051-052-059>065-011700-
...EAST CENTRAL MISSOURI...

CITY           SKY/WX    TMP DP  RH WIND       PRES   REMARKS
ST LOUIS INTL  SUNNY     87  69  54 SW8       30.10S HX  91

$$
MOZ072>076-082>087-097>100-106>115-011700-
...SOUTH CENTRAL AND SOUTHEAST MISSOURI...

CITY           SKY/WX    TMP DP  RH WIND       PRES   REMARKS
CAPE GIRARDEAU   N/A     83  69  62 W3        30.13R
POPLAR BLUFF   SUNNY     83  70  64 S5        30.12R
WEST PLAINS    SUNNY     82  69  64 S6        30.15S

$$


USA.gov is the U.S. government's official web portal to all federal, state and local government web resources and services.